Location: Cabo di Oristano
(39.8500°N, 8.4333°E)
Time: 16:48:22
(UTC+00:00)

Cosmos 1452 Rocket - Pass Details

Date: 31 January 2023
Orbit: 765 x 775 km, 74.1° (Epoch: 01 April)

Event Time Altitude Azimuth Distance (km) Brightness Sun altitude
Rises 05:33:09 0° 220° (SW) 3,219 6.5 -12.3°
Reaches altitude 10° 05:35:41 10° 228° (SW) 2,297 5.6 -11.8°
Maximum altitude 05:40:28 37° 296° (WNW) 1,189 4.0 -10.9°
Drops below altitude 10° 05:45:18 10° 3° (N) 2,312 5.9 -10.0°
Sets 05:47:53 0° 11° (NNE) 3,243 6.7 -9.5°
